This is the latest recevied weather packets stored in our database for station/object WP3OF-3. If no packets are shown the sender has not sent any weather packets the latest 10 day(s).
| Time | Temp. | Humidity | Pressure | Rain* | Wind** | Luminosity | Snow |
|---|---|---|---|---|---|---|---|
| 1777683471 | 23.33° C | 95% | 1017.7 hPa | 10.67 mm | - | - | - |
| 1777683168 | 22.78° C | 95% | 1017.6 hPa | 25.91 mm | - | - | - |
| 1777682865 | 23.33° C | 95% | 1017.7 hPa | 30.73 mm | - | - | - |
| 1777682561 | 23.33° C | 95% | 1017.7 hPa | 19.81 mm | - | - | - |
| 1777682259 | 23.33° C | 95% | 1017.7 hPa | 10.67 mm | - | - | - |
| 1777681956 | 23.33° C | 95% | 1017.4 hPa | 18.03 mm | - | - | - |
| 1777681652 | 22.78° C | 95% | 1017.5 hPa | 27.69 mm | - | - | - |
| 1777681350 | 22.78° C | 95% | 1017.2 hPa | 25.91 mm | - | - | - |
| 1777681047 | 22.78° C | 95% | 1017.2 hPa | 14.99 mm | - | - | - |
| 1777680745 | 22.78° C | 95% | 1017.2 hPa | 16.76 mm | - | - | - |
| 1777680442 | 22.78° C | 95% | 1017.1 hPa | 16.26 mm | - | - | - |
| 1777680140 | 22.78° C | 95% | 1017.1 hPa | 7.87 mm | - | - | - |
| 1777679835 | 22.78° C | 94% | 1017.1 hPa | 6.6 mm | - | - | - |
| 1777679531 | 22.78° C | 94% | 1017.1 hPa | 11.94 mm | - | - | - |
| 1777679228 | 22.78° C | 94% | 1017.2 hPa | 11.94 mm | - | - | - |
| 1777678925 | 22.78° C | 94% | 1017.1 hPa | 14.99 mm | - | - | - |
| 1777678623 | 22.78° C | 94% | 1017.1 hPa | 19.81 mm | - | - | - |
| 1777678320 | 22.78° C | 94% | 1017.2 hPa | 33.53 mm | - | - | - |
| 1777678015 | 22.78° C | 94% | 1017.4 hPa | 45.47 mm | - | - | - |
| 1777677713 | 22.78° C | 94% | 1017.2 hPa | 45.47 mm | - | - | - |
| 1777677411 | 23.33° C | 93% | 1017.1 hPa | 44.45 mm | - | - | - |
| 1777677109 | 23.33° C | 93% | 1017.3 hPa | 31.75 mm | - | - | - |
| 1777676807 | 23.33° C | 93% | 1017.1 hPa | 22.86 mm | - | - | - |
| 1777676505 | 23.33° C | 93% | 1016.9 hPa | 11.94 mm | - | - | - |
| 1777676202 | 23.33° C | 92% | 1016.8 hPa | 25.91 mm | - | - | - |
* Rain latest hour (hover to see other rain measurements)
** Current wind speed in m/s (hover to see current wind gust speed)